00:22
Airports
History
Links
Donate
Help keep this website running!
PayPal
Bitcoin
This page is community maintained. The information is intended for PC simulator navigation or reference.
Always use approved charts for navigation.
SNAF
Fazenda Agua Comprida
Fazenda Agua Comprida (SNAF)
Água Comprida, Minas Gerais, Brazil (38110)
4
Lat/Lng:19° 56' 49" S / 48° 2' 1" W
-19.946944 / -48.033611
Elevation:2211'ft / 674mMSL
ID / ICAO:SNAF
Runways:1
Longest:10-28
Grass 644m / 2,112ft
Nearby Weather23:00 GMT 2017-12-13
Nearby weather at SBUR, Uberaba located 13.3 nautical miles from SNAF
Altimeter: 30.03
Visibility: 6.2 statute miles
Wind: 9 knots (from 060°)
Temp: 25°c / 77°f
Humidity: 61.2%

METAR: SBUR 132300Z 06009KT 9999 FEW049 25/17 Q1017

(Powered by phpweather)
Runway 10 / 28
Dimensions:643.7 x 28m 2112' x 92'ft
Surface:Grass
Runway 10 [A]Runway 28 [B]
Heading:078°TH 258°TH
Lat:
Lng:
19° 56' 50.99"S
48° 2' 11.84"W
19° 56' 47.01"S
48° 1' 50.16"W
User Notes and Comments
19° 56' 49" S / 48° 2' 1" W
Distance To
Airport ID:
Nearby Airports
(C) Uberaba 13.3 NM
SBUR ( WX ) NNE 19°
4 Fazenda Mata Velha 14.1 NM
SIMV ENE 57°
(C) Volta Grande 14.3 NM
SNVG WSW 245°
4 Usina Delta I 16.6 NM
SNUS E 88°
(U) Junqueira 17.7 NM
SDWK ESE 102°
4 Vale dos Dinossauros 18.4 NM
SSFH NE 51°
4 Fazenda Boa Fe 23.5 NM
SNAW ENE 78°
VFR Chart
Flight Planning at SkyVector.com